“In life, you're either a passenger or a pilot. It’s your choice.”

WELCOME TO YOUR AVIATION DREAM!

What's new Up There Icon

WHAT’S NEW HERE?

4000+ aviation terms, acronyms and definitions!
Make your study a little easier with the aviation glossaries that gather over 4000 terms and acronyms extracted from weather, communications, technical and more general topics…
Partnership Icon

PARTNESHIP ANNOUNCEMENT

I am proud to announce a partnership with nizul Logo, study partner of every pilot who wants to consolidate their ground school knowledge and master their written examination.

Try Me Icon

ALL YOURS FOR 30 MINUTES!

Not sure you’d get along with a freelance instructor? How about giving it a try with a 30 minute flight?
My treat! All free.

Resources Tool Box

STUDENT RESOURCES

As a registered student training with me, you get access to a whole lot of files, tools, documents, aviation glossaries, videos, quizzes, sample tests, etc… 

Control Tower Icon

QUESTIONS? CHECK F.A.Q.

In aviation, the only stupid question is the one you didn’t ask. And there is a big chance yours has already been answered in the FAQ. Check it out!

Brain Icon

ARE YOU WIRED FOR FLYING?

Flying an aircraft is usually not the most difficult part of the “problem” and it takes a certain mindset to deal with the other aspects of a flight. Find out wether…

THEY DID IT!

Meet those who refused to be the passengers of their lives, and learn about their experience.

QUICK FACTS

Aviation is a world of serious numbers.
Here are my own, and they count as much as the other ones.

0
YEARS OF
WISDOM
0
YEARS OF
SKY FUN
0
AMAZING
STUDENTS
0
HOURS OF
PURE EXCITEMENT

Grow some wings,
Come fly with me!

Vancouver Island Weather

METARs and TAFs.
VICTORIA INTL (CYYJ)
METAR:

CYYJ 201208Z 00000KT 15SM -RA SCT081 BKN093 09/09 A2959 RMK AC4AC4 SLP022

TAF:

TAF CYYJ 201138Z 2012/2112 27005KT P6SM FEW060 BKN100 FM201500 26005KT P6SM -RA SCT015 OVC040 TEMPO 2015/2021 4SM -RA BR BKN015 OVC030 BECMG 2016/2018 16010KT FM202100 16010KT P6SM BKN050 TEMPO 2021/2103 P6SM -SHRA BKN030 FM210300 16010KT P6SM FEW030 SCT070 TEMPO 2103/2112 BKN030 RMK NXT FCST BY 201800Z

NANAIMO (CYCD)
METAR:

CYCD 200400Z 20002KT 15SM FEW015 BKN110 09/09 A2969 RMK SC1AC6 LAST STFD OBS/NEXT 201300Z SLP056

TAF:

TAF CYCD 191739Z 1918/2004 VRB03KT P6SM BKN009 TEMPO 1918/1920 SCT009 FM192000 12005KT P6SM FEW006 SCT020 TEMPO 1920/1921 BKN020 RMK NXT FCST BY 200000Z

LONG BEACH (CYAZ)
METAR:

CYAZ 200100Z 11011G21KT 15SM BKN057 OVC150 14/04 A2966 RMK SC5AC3 LAST STFD OBS/NXT 191300UTC SLP045 DENSITY ALT 300FT

TAF:

TAF CYAZ 191841Z 1919/2001 10010G20KT P6SM FEW040 BKN200 BECMG 1919/1921 12015G25KT RMK NXT FCST WILL BE ISSUED AT 201445Z

For more in-depth weather information, please, check Collaborative Flight Planning Service

For all Runway conditions in CYYJ, please check

IIDS Web View

Windy’s Forecast & Observations